Абаша

Грузия     42˚12′28″N   42˚12′02″E
темп.,
°C
ветер,
м/с
пор.,
м/с
влажн.,
%
обл.,
%
осадки,
мм/ч
давл.,
гПа
погр.,
м
5 декабря, сб
сб501:00+11˚в1119480 0.0 1025683
04:00+10˚в1019500 0.0 1025659
07:00+10˚в1019510 0.0 1025662
10:00+11˚в1118480 0.0 1024774
13:00+14˚в1216390 0.0 1022934
16:00+14˚в1116380 0.0 1021916
19:00+12˚в1118430 0.0 1023684
22:00+11˚в1119480 0.0 1023729
6 декабря, вс
вс601:00+10˚в1018490 0.0 1023710
04:00+9˚в1018490 0.0 1023680
07:00+9˚в918510 0.0 1023652
10:00+10˚в1017480 0.0 1023782
13:00+13˚в1114380 0.0 10211027
16:00+13˚в1014350 0.0 10211061
19:00+10˚в1018390 0.0 1023760
22:00+9˚в1219410 0.0 1024865
7 декабря, пн
пн701:00+9˚в1220420 0.0 1024918
04:00+9˚в1321420 0.0 1025916
07:00+8˚в1321420 0.0 1024897
10:00+9˚в1421400 0.0 1025991
13:00+12˚в1621330 0.0 10231103
16:00+11˚в1520330 0.0 10221005
19:00+9˚в1522360 0.0 1024819
22:00+8˚в1523390 0.0 1025803
8 декабря, вт
вт801:00+8˚в15234058 0.0 1025775
04:00+7˚в14214079 0.0 1025724
07:00+7˚в122041100 0.0 1025632
10:00+8˚в10174083 0.0 1025640
13:00+12˚в1116327 0.0 1023717
16:00+12˚в1117329 0.0 1022677
19:00+10˚в1119361 0.0 1024592
22:00+10˚в12213930 0.0 1024651
9 декабря, ср
ср901:00+10˚в14223797 0.0 1024670
04:00+9˚в14224098 0.0 1024660
07:00+9˚в122041100 0.0 1023646
10:00+10˚в111740100 0.0 1024616
13:00+10˚в91641100 0.0 1023495
16:00+11˚вюв81348100 0.0 1023513
19:00+10˚в71356100 0.4 1024527
22:00+9˚вюв71448100 0.2 1025531